Weather History for TJNR - April, 2013

Change the Weather History Date:

Friday, April 5, 2013

  Actual Average Record
Temperature  
Mean Temperature 78 °F -  
Max Temperature 82 °F 81 °F 90 °F (2002)
Min Temperature 73 °F 69 °F 46 °F (1998)
Cooling Degree Days 12    
Growing Degree Days 28 (Base 50)    
Moisture  
Dew Point 73 °F    
Average Humidity 87    
Maximum Humidity 100    
Minimum Humidity 71    
Precipitation  
Precipitation 0.03 in - - ()
Sea Level Pressure  
Sea Level Pressure 30.04 in    
Wind  
Wind Speed 8 mph (ESE)    
Max Wind Speed 15 mph    
Max Gust Speed 22 mph    
Visibility 9 miles    
Events Rain    
Averages and records for this station are not official NWS values.
T = Trace of Precipitation, MM = Missing Value Source: NWS Daily Summary

Daily Weather History Graph

Daily Weather History Graph

Search for Another Location

Airport or City:

Trip Planner

Search our weather history database for the weather conditions in past years. The results will help you decide how hot, cold, wet, or windy it might be!

Date:

Astronomy

Apr. 05, 2013 Rise Set
Actual Time 6:13 AM AST 6:37 PM AST
Civil Twilight 5:51 AM AST 6:59 PM AST
Nautical Twilight 5:25 AM AST 7:24 PM AST
Astronomical Twilight 5:00 AM AST 7:50 PM AST
Moon 2:38 AM AST (4/5) 2:32 PM AST (4/5)
Length of Visible Light 13h 07m
Length of Day
12h 23m
Waning Crescent, 24% of the Moon is Illuminated
Apr 5
Waning Crescent
Apr 10
New
Apr 18
First Quarter
Apr 25
Full
May 2
Last Quarter

Hourly Weather History & Observations

Time (AST) Temp. Heat Index Dew Point Humidity Pressure Visibility Wind Dir Wind Speed Gust Speed Precip Events Conditions
12:53 AM 77.0 °F - 71.1 °F 82% 30.05 in 10.0 mi East 6.9 mph - 0.01 in   Mostly Cloudy
1:11 AM 78.8 °F - 71.6 °F 78% 30.04 in 10.0 mi ENE 8.1 mph - N/A   Overcast
1:53 AM 77.0 °F - 71.1 °F 82% 30.02 in 10.0 mi East 8.1 mph - N/A   Mostly Cloudy
2:19 AM 77.0 °F - 71.6 °F 83% 30.01 in 10.0 mi East 8.1 mph - N/A   Partly Cloudy
2:53 AM 75.9 °F - 71.1 °F 85% 30.01 in 10.0 mi East 4.6 mph - N/A   Clear
3:53 AM 77.0 °F - 71.1 °F 82% 30.00 in 10.0 mi East 6.9 mph - N/A   Mostly Cloudy
4:53 AM 77.0 °F - 70.0 °F 79% 30.00 in 10.0 mi East 10.4 mph - N/A   Overcast
5:53 AM 77.0 °F - 71.1 °F 82% 30.02 in 10.0 mi East 11.5 mph - N/A   Overcast
6:53 AM 78.1 °F - 71.1 °F 79% 30.04 in 10.0 mi East 10.4 mph 19.6 mph N/A   Overcast
7:26 AM 73.4 °F - 73.4 °F 100% 30.06 in 1.8 mi SE 13.8 mph 21.9 mph 0.00 in Rain Rain
7:34 AM 73.4 °F - 73.4 °F 100% 30.07 in 1.0 mi SE 9.2 mph 19.6 mph N/A Rain Heavy Rain
7:53 AM 73.0 °F - 73.0 °F 100% 30.07 in 2.0 mi SE 9.2 mph - N/A Rain Light Rain
7:56 AM 73.4 °F - 73.4 °F 100% 30.07 in 3.0 mi ESE 8.1 mph - N/A Rain Light Rain
8:09 AM 73.4 °F - 73.4 °F 100% 30.07 in 8.0 mi SE 5.8 mph - N/A   Overcast
8:32 AM 75.2 °F - 75.2 °F 100% 30.08 in 10.0 mi SSE 3.5 mph - N/A   Overcast
8:42 AM 75.2 °F - 75.2 °F 100% 30.08 in 10.0 mi SE 8.1 mph - N/A   Overcast
8:53 AM 75.0 °F - 75.0 °F 100% 30.09 in 3.0 mi SE 10.4 mph - N/A Rain Light Rain
9:03 AM 75.2 °F - 75.2 °F 100% 30.08 in 5.0 mi ESE 5.8 mph - N/A   Overcast
9:53 AM 75.9 °F - 73.0 °F 91% 30.09 in 8.0 mi SE 10.4 mph - N/A   Overcast
10:53 AM 78.1 °F - 73.9 °F 87% 30.09 in 10.0 mi SE 5.8 mph - N/A   Overcast
11:53 AM 82.0 °F 87.4 °F 73.0 °F 74% 30.08 in 10.0 mi ESE 10.4 mph 19.6 mph N/A   Overcast
12:53 PM 82.0 °F 86.7 °F 72.0 °F 71% 30.04 in 10.0 mi ESE 15.0 mph 20.7 mph N/A   Mostly Cloudy
1:53 PM 82.0 °F 87.4 °F 73.0 °F 74% 30.02 in 10.0 mi ESE 12.7 mph - N/A   Mostly Cloudy
2:53 PM 82.0 °F 86.7 °F 72.0 °F 71% 30.00 in 10.0 mi ESE 13.8 mph 21.9 mph N/A   Partly Cloudy
3:53 PM 80.1 °F 83.8 °F 72.0 °F 76% 29.99 in 10.0 mi ESE 13.8 mph - N/A   Scattered Clouds
4:53 PM 81.0 °F 85.8 °F 73.0 °F 77% 29.97 in 10.0 mi East 11.5 mph - 0.01 in   Clear
5:53 PM 79.0 °F - 72.0 °F 79% 29.99 in 10.0 mi ESE 9.2 mph - N/A   Partly Cloudy
6:53 PM 77.0 °F - 72.0 °F 84% 29.99 in 10.0 mi East 6.9 mph - N/A   Clear
7:53 PM 77.0 °F - 72.0 °F 84% 30.02 in 10.0 mi East 6.9 mph - N/A   Clear
8:53 PM 77.0 °F - 72.0 °F 84% 30.03 in 10.0 mi ESE 3.5 mph - N/A   Clear
9:38 PM 75.2 °F - 73.4 °F 94% 30.03 in 10.0 mi Calm Calm - 0.01 in   Mostly Cloudy
9:53 PM 75.9 °F - 73.0 °F 91% 30.04 in 10.0 mi Calm Calm - 0.01 in   Overcast
10:53 PM 77.0 °F - 73.0 °F 88% 30.04 in 10.0 mi ESE 3.5 mph - N/A   Mostly Cloudy
11:27 PM 75.2 °F - 73.4 °F 94% 30.04 in 10.0 mi Calm Calm - N/A   Scattered Clouds
11:53 PM 75.9 °F - 73.0 °F 91% 30.03 in 10.0 mi Calm Calm - N/A   Clear